Location: Newark
(40.9833°N, 0.0333°W)
Time: 20:06:21
(UTC+00:00)

Vanguard 2 Rocket - Pass Details

Date: 29 October 2020
Orbit: 553 x 3326 km, 32.9° (Epoch: 29 November)

Event Time Altitude Azimuth Distance (km) Brightness Sun altitude
Rises 21:51:46 0° 262° (W) 3,078 - -53.5°
Reaches altitude 10° 21:54:06 10° 248° (WSW) 2,362 - -53.8°
Maximum altitude 21:58:42 27° 192° (SSW) 1,883 - -54.5°
Drops below altitude 10° 22:05:33 10° 139° (SE) 3,621 - -55.4°
Sets 22:10:08 0° 129° (SE) 5,128 - -56.0°
